Grande Italia — IBTF — position and weather

sailwx.info

Track history (hours):
 
Tides and Currents Weather Stations Pressure Air Temp Water Temp Dewpoint Dewpoint Depression Visibility Wind Speed Wind Dir Waves Ship Positions

Grande Italia

Last reported at 2014-Oct-24 12:33 UTC. Time now 2014-Oct-26 09:32 UTC.
Position N 40°44' E 029°39'.

Length 177 m; draft 7.9 m.

Type: Ship. MMSI: 247039300.

Date/timePositionNaut miles runAvg speedWind from/ knotsBaromVisibWave heightAir tempDewpointWater temp
2014-Oct-24 12:33N 40°44' E 029°39'1111.3
2014-Oct-24 11:33N 40°44' E 029°24'1111.0
2014-Oct-24 10:34N 40°42' E 029°10'1414.4
2014-Oct-24 09:34N 40°38' E 028°52'17 0.6
2014-Oct-23 05:13N 40°25' E 029°06'4 5.9
2014-Oct-23 04:32N 40°26' E 029°01'1312.3
2014-Oct-23 03:27N 40°32' E 028°45'1314.4
2014-Oct-23 02:34N 40°41' E 028°57'1515.2
2014-Oct-23 01:34N 40°44' E 029°16'1211.8
2014-Oct-23 00:33N 40°45' E 029°32'1 0.0
2014-Oct-21 14:28N 40°45' E 029°31'8 9.0
2014-Oct-21 13:32N 40°43' E 029°20'1313.3
2014-Oct-21 12:33N 40°43' E 029°03'1514.6
2014-Oct-21 11:33N 40°43' E 028°44'1414.5
2014-Oct-21 10:33N 40°44' E 028°25'1614.8
2014-Oct-21 09:29N 40°44' E 028°04'4214.3
2014-Oct-21 06:32N 40°34' E 027°10'1414.5
2014-Oct-21 05:33N 40°28' E 026°53'4113.8
2014-Oct-21 02:33N 40°01' E 026°12'1211.4
2014-Oct-21 01:32N 39°56' E 025°58'1414.1
2014-Oct-21 00:33N 39°45' E 025°47'1615.3
2014-Oct-20 23:32N 39°31' E 025°38'1515.0
2014-Oct-20 22:33N 39°18' E 025°30'8914.6
2014-Oct-20 16:29N 37°58' E 024°39'1313.7
2014-Oct-20 15:30N 37°46' E 024°34'1313.5
2014-Oct-20 14:33N 37°35' E 024°26'1413.8
2014-Oct-20 13:33N 37°24' E 024°16'1514.7
2014-Oct-20 12:33N 37°12' E 024°05'1814.2
2014-Oct-20 11:16N 36°58' E 023°50'1013.8
2014-Oct-20 10:33N 36°50' E 023°42'1413.8
2014-Oct-20 09:33N 36°39' E 023°32'36513.9
2014-Oct-19 07:19N 37°47' E 016°02'1314.6
2014-Oct-19 06:23N 37°51' E 015°46'173 8.6
2014-Oct-18 10:18N 40°34' E 014°31'23911.5
2014-Oct-17 13:27N 43°05' E 010°23'1415.4
2014-Oct-17 12:33N 43°18' E 010°16'1413.5
2014-Oct-17 11:33N 43°31' E 010°13'6 5.5
2014-Oct-17 10:32N 43°35' E 010°19'0 0.0
2014-Oct-17 09:32N 43°35' E 010°19'0 0.0
2014-Oct-17 08:32N 43°35' E 010°19'0 0.0
2014-Oct-17 07:32N 43°35' E 010°19'0 0.0
2014-Oct-17 06:32N 43°35' E 010°19'0 0.0
2014-Oct-17 05:32N 43°35' E 010°19'0 0.0
2014-Oct-17 04:32N 43°35' E 010°19'0 0.0
2014-Oct-17 03:32N 43°35' E 010°19'0 0.0
2014-Oct-17 02:32N 43°35' E 010°19'0 0.2
2014-Oct-17 01:33N 43°35' E 010°19'7 6.5
2014-Oct-17 00:33N 43°29' E 010°13'1514.8
2014-Oct-16 23:33N 43°19' E 009°59'1515.0
2014-Oct-16 22:33N 43°15' E 009°39'1515.5
2014-Oct-16 21:33N 43°13' E 009°18'1615.7
2014-Oct-16 20:33N 43°11' E 008°57'7715.5
2014-Oct-16 15:33N 43°00' E 007°12'1515.2
2014-Oct-16 14:33N 42°59' E 006°51'1514.7
2014-Oct-16 13:32N 42°56' E 006°31'1914.2
2014-Oct-16 12:13N 42°52' E 006°06'1114.4
2014-Oct-16 11:29N 42°47' E 005°53'1314.6
2014-Oct-16 10:33N 42°41' E 005°37'1515.1
2014-Oct-16 09:33N 42°34' E 005°18'1515.0
2014-Oct-16 08:33N 42°28' E 005°00'2015.4
2014-Oct-16 07:16N 42°19' E 004°36'1315.4
2014-Oct-16 06:25N 42°13' E 004°20'1415.4
2014-Oct-16 05:31N 42°07' E 004°03'4614.4
2014-Oct-16 02:20N 41°45' E 003°09'1215.1
2014-Oct-16 01:33N 41°37' E 002°57'1515.3
2014-Oct-16 00:33N 41°27' E 002°42'1515.1
2014-Oct-15 23:33N 41°17' E 002°27'1515.1
2014-Oct-15 22:33N 41°07' E 002°12'1515.1
2014-Oct-15 21:33N 40°57' E 001°57'1515.3
2014-Oct-15 20:33N 40°47' E 001°42'1515.1
2014-Oct-15 19:34N 40°37' E 001°27'1515.2
2014-Oct-15 18:34N 40°28' E 001°11'1615.4
2014-Oct-15 17:33N 40°17' E 000°56'1515.4
2014-Oct-15 16:33N 40°07' E 000°41'1515.2
2014-Oct-15 15:33N 39°56' E 000°27'1515.0
2014-Oct-15 14:34N 39°45' E 000°13'1515.3
2014-Oct-15 13:33N 39°35' W 000°01'1515.3
2014-Oct-15 12:33N 39°25' W 000°17'2 1.7
2014-Oct-15 11:32N 39°26' W 000°18'0 0.0
2014-Oct-15 10:29N 39°26' W 000°18'0 0.0
2014-Oct-15 09:32N 39°26' W 000°18'0 0.0
2014-Oct-15 08:32N 39°26' W 000°18'0 0.0
2014-Oct-15 07:32N 39°26' W 000°18'0 0.0
2014-Oct-15 06:32N 39°26' W 000°18'0 0.0
2014-Oct-15 05:32N 39°26' W 000°18'0 0.0
2014-Oct-15 04:32N 39°26' W 000°18'0 0.0
2014-Oct-15 03:32N 39°26' W 000°18'0 0.0
2014-Oct-15 02:32N 39°26' W 000°18'0 0.0
2014-Oct-15 01:32N 39°26' W 000°18'2 2.5
2014-Oct-15 00:34N 39°25' W 000°16'8710.8
2014-Oct-14 16:33N 37°58' W 000°09'1414.2
2014-Oct-14 15:33N 37°47' W 000°20'1414.0
2014-Oct-14 14:33N 37°35' W 000°29'1414.0
2014-Oct-14 13:33N 37°25' W 000°42'1414.1
2014-Oct-14 12:33N 37°16' W 000°55'  
Track history (hours):
 
Tides and Currents Weather Stations Pressure Air Temp Water Temp Dewpoint Dewpoint Depression Visibility Wind Speed Wind Dir Waves Ship Positions

Grande Italia

Last reported at 2014-Oct-24 12:33 UTC. Time now 2014-Oct-26 09:32 UTC.
Position N 40°44' E 029°39'.

Length 177 m; draft 7.9 m.

Type: Ship. MMSI: 247039300.

Date/timePositionNaut miles runAvg speedWind from/ knotsBaromVisibWave heightAir tempDewpointWater temp
2014-Oct-24 12:33N 40°44' E 029°39'1111.3
2014-Oct-24 11:33N 40°44' E 029°24'1111.0
2014-Oct-24 10:34N 40°42' E 029°10'1414.4
2014-Oct-24 09:34N 40°38' E 028°52'17 0.6
2014-Oct-23 05:13N 40°25' E 029°06'4 5.9
2014-Oct-23 04:32N 40°26' E 029°01'1312.3
2014-Oct-23 03:27N 40°32' E 028°45'1314.4
2014-Oct-23 02:34N 40°41' E 028°57'1515.2
2014-Oct-23 01:34N 40°44' E 029°16'1211.8
2014-Oct-23 00:33N 40°45' E 029°32'1 0.0
2014-Oct-21 14:28N 40°45' E 029°31'8 9.0
2014-Oct-21 13:32N 40°43' E 029°20'1313.3
2014-Oct-21 12:33N 40°43' E 029°03'1514.6
2014-Oct-21 11:33N 40°43' E 028°44'1414.5
2014-Oct-21 10:33N 40°44' E 028°25'1614.8
2014-Oct-21 09:29N 40°44' E 028°04'4214.3
2014-Oct-21 06:32N 40°34' E 027°10'1414.5
2014-Oct-21 05:33N 40°28' E 026°53'4113.8
2014-Oct-21 02:33N 40°01' E 026°12'1211.4
2014-Oct-21 01:32N 39°56' E 025°58'1414.1
2014-Oct-21 00:33N 39°45' E 025°47'1615.3
2014-Oct-20 23:32N 39°31' E 025°38'1515.0
2014-Oct-20 22:33N 39°18' E 025°30'8914.6
2014-Oct-20 16:29N 37°58' E 024°39'1313.7
2014-Oct-20 15:30N 37°46' E 024°34'1313.5
2014-Oct-20 14:33N 37°35' E 024°26'1413.8
2014-Oct-20 13:33N 37°24' E 024°16'1514.7
2014-Oct-20 12:33N 37°12' E 024°05'1814.2
2014-Oct-20 11:16N 36°58' E 023°50'1013.8
2014-Oct-20 10:33N 36°50' E 023°42'1413.8
2014-Oct-20 09:33N 36°39' E 023°32'36513.9
2014-Oct-19 07:19N 37°47' E 016°02'1314.6
2014-Oct-19 06:23N 37°51' E 015°46'173 8.6
2014-Oct-18 10:18N 40°34' E 014°31'23911.5
2014-Oct-17 13:27N 43°05' E 010°23'1415.4
2014-Oct-17 12:33N 43°18' E 010°16'1413.5
2014-Oct-17 11:33N 43°31' E 010°13'6 5.5
2014-Oct-17 10:32N 43°35' E 010°19'0 0.0
2014-Oct-17 09:32N 43°35' E 010°19'0 0.0
2014-Oct-17 08:32N 43°35' E 010°19'0 0.0
2014-Oct-17 07:32N 43°35' E 010°19'0 0.0
2014-Oct-17 06:32N 43°35' E 010°19'0 0.0
2014-Oct-17 05:32N 43°35' E 010°19'0 0.0
2014-Oct-17 04:32N 43°35' E 010°19'0 0.0
2014-Oct-17 03:32N 43°35' E 010°19'0 0.0
2014-Oct-17 02:32N 43°35' E 010°19'0 0.2
2014-Oct-17 01:33N 43°35' E 010°19'7 6.5
2014-Oct-17 00:33N 43°29' E 010°13'1514.8
2014-Oct-16 23:33N 43°19' E 009°59'1515.0
2014-Oct-16 22:33N 43°15' E 009°39'1515.5
2014-Oct-16 21:33N 43°13' E 009°18'1615.7
2014-Oct-16 20:33N 43°11' E 008°57'7715.5
2014-Oct-16 15:33N 43°00' E 007°12'1515.2
2014-Oct-16 14:33N 42°59' E 006°51'1514.7
2014-Oct-16 13:32N 42°56' E 006°31'1914.2
2014-Oct-16 12:13N 42°52' E 006°06'1114.4
2014-Oct-16 11:29N 42°47' E 005°53'1314.6
2014-Oct-16 10:33N 42°41' E 005°37'1515.1
2014-Oct-16 09:33N 42°34' E 005°18'1515.0
2014-Oct-16 08:33N 42°28' E 005°00'2015.4
2014-Oct-16 07:16N 42°19' E 004°36'1315.4
2014-Oct-16 06:25N 42°13' E 004°20'1415.4
2014-Oct-16 05:31N 42°07' E 004°03'4614.4
2014-Oct-16 02:20N 41°45' E 003°09'1215.1
2014-Oct-16 01:33N 41°37' E 002°57'1515.3
2014-Oct-16 00:33N 41°27' E 002°42'1515.1
2014-Oct-15 23:33N 41°17' E 002°27'1515.1
2014-Oct-15 22:33N 41°07' E 002°12'1515.1
2014-Oct-15 21:33N 40°57' E 001°57'1515.3
2014-Oct-15 20:33N 40°47' E 001°42'1515.1
2014-Oct-15 19:34N 40°37' E 001°27'1515.2
2014-Oct-15 18:34N 40°28' E 001°11'1615.4
2014-Oct-15 17:33N 40°17' E 000°56'1515.4
2014-Oct-15 16:33N 40°07' E 000°41'1515.2
2014-Oct-15 15:33N 39°56' E 000°27'1515.0
2014-Oct-15 14:34N 39°45' E 000°13'1515.3
2014-Oct-15 13:33N 39°35' W 000°01'1515.3
2014-Oct-15 12:33N 39°25' W 000°17'2 1.7
2014-Oct-15 11:32N 39°26' W 000°18'0 0.0
2014-Oct-15 10:29N 39°26' W 000°18'0 0.0
2014-Oct-15 09:32N 39°26' W 000°18'0 0.0
2014-Oct-15 08:32N 39°26' W 000°18'0 0.0
2014-Oct-15 07:32N 39°26' W 000°18'0 0.0
2014-Oct-15 06:32N 39°26' W 000°18'0 0.0
2014-Oct-15 05:32N 39°26' W 000°18'0 0.0
2014-Oct-15 04:32N 39°26' W 000°18'0 0.0
2014-Oct-15 03:32N 39°26' W 000°18'0 0.0
2014-Oct-15 02:32N 39°26' W 000°18'0 0.0
2014-Oct-15 01:32N 39°26' W 000°18'2 2.5
2014-Oct-15 00:34N 39°25' W 000°16'8710.8
2014-Oct-14 16:33N 37°58' W 000°09'1414.2
2014-Oct-14 15:33N 37°47' W 000°20'1414.0
2014-Oct-14 14:33N 37°35' W 000°29'1414.0
2014-Oct-14 13:33N 37°25' W 000°42'1414.1
2014-Oct-14 12:33N 37°16' W 000°55'  

Dump ship's entire track history